Paso Robles, CA

4:01 AM PST on February 13, 2016 (GMT -0800)
Paso Robles Municipal

Weather History for KPRB - December, 2012

Change the Weather History Date:

Thursday, December 6, 2012

  Actual Average Record
Temperature  
Mean Temperature 58 °F 47 °F  
Max Temperature 66 °F 60 °F 74 °F (1962)
Min Temperature 49 °F 34 °F 16 °F (2013)
Degree Days  
Heating Degree Days 7 18  
Month to date heating degree days 48 105  
Since 1 July heating degree days 472 654  
Cooling Degree Days 0 0  
Month to date cooling degree days 0 0  
Year to date cooling degree days 1147 927  
Growing Degree Days 8 (Base 50)    
Moisture  
Dew Point 53 °F    
Average Humidity 84    
Maximum Humidity 100    
Minimum Humidity 67    
Precipitation  
Precipitation 0.00 in 0.05 in 3.07 in (1966)
Month to date precipitation 0.47 0.28  
Year to date precipitation 7.07 11.05  
Since 1 July precipitation 1.20  
Sea Level Pressure  
Sea Level Pressure 30.04 in    
Wind  
Wind Speed 5 mph (NW)    
Max Wind Speed 14 mph    
Max Gust Speed 16 mph    
Visibility 10 miles    
Events      
T = Trace of Precipitation, MM = Missing Value Source: NWS Daily Summary

Daily Weather History Graph

Daily Weather History Graph

Search for Another Location

Airport or City:

Trip Planner

Search our weather history database for the weather conditions in past years. The results will help you decide how hot, cold, wet, or windy it might be!

Date:

Astronomy

Dec. 06, 2012 Rise Set
Actual Time 6:58 AM PST 4:48 PM PST
Civil Twilight 6:30 AM PST 5:17 PM PST
Nautical Twilight 5:58 AM PST 5:48 PM PST
Astronomical Twilight 5:27 AM PST 6:19 PM PST
Moon No Moon Rise 12:05 PM PST (12/6)
Length of Visible Light 10h 46m
Length of Day
9h 50m
Waning Gibbous, 48% of the Moon is Illuminated
Dec 6
Waning Gibbous
Dec 13
New
Dec 19
First Quarter
Dec 28
Full
Jan 4
Last Quarter

Hourly Weather History & Observations

Time (PST) Temp. Dew Point Humidity Pressure Visibility Wind Dir Wind Speed Gust Speed Precip Events Conditions
8:53 AM 57.9 °F 57.0 °F 97% 30.08 in 7.0 mi NNW 8.1 mph - N/A   Overcast
9:53 AM 59.0 °F 57.0 °F 93% 30.09 in 10.0 mi NNW 6.9 mph - N/A   Unknown
10:53 AM 60.1 °F 55.9 °F 86% 30.08 in 10.0 mi NW 9.2 mph - N/A   Overcast
11:53 AM 62.1 °F 55.0 °F 78% 30.05 in 10.0 mi WNW 9.2 mph - N/A   Overcast
12:17 PM 62.6 °F 55.4 °F 77% 30.04 in 10.0 mi WNW 5.8 mph - N/A   Scattered Clouds
12:53 PM 64.9 °F 55.0 °F 70% 30.02 in 10.0 mi WNW 5.8 mph - N/A   Mostly Cloudy
1:31 PM 64.4 °F 55.4 °F 73% 30.01 in 10.0 mi NW 9.2 mph - N/A   Mostly Cloudy
1:53 PM 64.9 °F 54.0 °F 68% 29.99 in 10.0 mi NW 6.9 mph - N/A   Overcast
2:06 PM 64.4 °F 53.6 °F 68% 30.00 in 10.0 mi WNW 6.9 mph - N/A   Mostly Cloudy
2:27 PM 66.2 °F 53.6 °F 64% 30.00 in 10.0 mi NW 4.6 mph - N/A   Mostly Cloudy
2:53 PM 62.1 °F 55.0 °F 78% 29.99 in 10.0 mi ESE 13.8 mph - N/A   Overcast
3:15 PM 60.8 °F 55.4 °F 82% 30.01 in 10.0 mi ESE 6.9 mph - N/A   Mostly Cloudy
3:51 PM 62.6 °F 53.6 °F 72% 30.01 in 10.0 mi ESE 6.9 mph - N/A   Mostly Cloudy
3:53 PM 61.0 °F 54.0 °F 78% 30.00 in 10.0 mi ESE 9.2 mph - N/A   Mostly Cloudy
4:53 PM 59.0 °F 53.1 °F 81% 30.01 in 10.0 mi East 8.1 mph - N/A   Overcast
6:53 PM 55.9 °F 51.1 °F 84% 30.04 in 10.0 mi NW 4.6 mph - N/A   Overcast
7:53 PM 55.0 °F 51.1 °F 86% 30.05 in 10.0 mi NNW 5.8 mph - N/A   Overcast
8:53 PM 53.1 °F 50.0 °F 89% 30.08 in 10.0 mi NNW 6.9 mph - N/A   Overcast
9:53 PM 54.0 °F 50.0 °F 86% 30.09 in 10.0 mi NW 4.6 mph - N/A   Overcast
10:24 PM 53.6 °F 48.2 °F 82% 30.08 in 10.0 mi NW 3.5 mph - N/A   Scattered Clouds
10:53 PM 51.1 °F 48.0 °F 89% 30.07 in 10.0 mi Calm Calm - N/A   Partly Cloudy
11:53 PM 48.9 °F 46.9 °F 93% 30.07 in 10.0 mi WNW 4.6 mph - N/A   Clear